Location: Bruderhein
(53.8035°N, 112.9265°W)
Time: 01:57:41
(UTC+00:00)

KKS-1 - Pass Details

Date: 04 April 2023
Orbit: 633 x 644 km, 98.2° (Epoch: 31 May)

Event Time Altitude Azimuth Distance (km) Brightness Sun altitude
Rises 05:35:13 0° 21° (NNE) 2,945 ? -25.5°
Reaches altitude 10° 05:37:36 10° 30° (NNE) 2,031 ? -25.7°
Enters shadow 05:39:45 24° 51° (NE) 1,326 ? -25.9°
